Terug naar catalogus

TELECOM 2D

ActiefCommunicatieGEO
NORAD 24209·PAYLOAD·🇫🇷 France

Gelanceerd Aug 8, 1996 vanaf Guiana Space Centre

Loading…

TLE

VersSource: Space-Track

Epoch: Sep 14, 2026, 10:31 UTC

1 24209U 96044B   26257.43846255 -.00000020  00000-0  00000-0 0  9992
2 24209  13.1849  23.8406 0012590  27.0624   2.7789  0.98446331109434

Volg TELECOM 2D in realtime met AllMySat

Download on the App Store